THOR ABLESTAR DEB, 337

Orbit data source: Space-Track

THOR ABLESTAR DEB, 337 is space debris in LEO originally from a launch on Thu, 29 Jun 1961 UTC launched from the Air Force Eastern Test Range (AFETR). Debris objects in space refer to the collection of defunct objects orbiting the Earth. Examples of debris include non-operational satellites, rocket bodies, and fragments generated from explosions, collisions, or faulty payload assembly.

Loading next visibility...
Identifier
337, 1961-015DP
Orbit
LEO
Last TLE update
8 hours ago
Origin
Manufacturer
Unknown
Mission
Spacecraft
Bus & Motor
Unknown
Mass
Unknown
Launch date (UTC)
1961-06-29 (64 years ago)
Launch vehicle
Unknown
Launch site
Air Force Eastern Test Range (AFETR)
Object type
Payload
Rocket body
Debris
Shape & HBR
Unknown
Radar Cross Section
Small (<0.1 m²)

Expand to show TLE details & history

TLE from 8 hours ago
0 THOR ABLESTAR DEB
1 00337U 61015DP  25182.85175724  .00000359  00000-0  42750-3 0  9991
2 00337  67.0094  29.8326 0099161 155.5748 205.0071 13.76106457196575
Epoch: 2025-07-01T20:26Z
TLE epoch observation values (Epoch: 2025-07-01T20:26:31.825Z)
Latitude
-0.00007°
Longitude
163.05869°
Altitude
1,046.045 km
Speed
7.296 km/s
True Right ascension
01h 59m 19s
True Declination
0° 00' 00"
Sunlit
Object was in daylight at epoch
Visualization orbit readout
Latitude
-28.27335°
Longitude
-4.6065°
Altitude
945.51 km
Speed
7.399 km/s
Apparent Right ascension
12h 01m 15s
Apparent Declination
-71° 48' 16"
Sunlit
Object is in full shadow
Visualization observer readout
Local Sidereal Time
16:07:23
Azimuth
198.422° SSW
Elevation
-29.698°
Doppler factor
1
Orbital elements
Apogee altitude
1,049.036 km
Perigee altitude
903.185 km
Semi-major axis
7,354.247 km
Eccentricity
0.00992
Inclination
67.0094°
RAAN
29.8326°
Arg. of periapsis
155.5748°
True anomaly
Unknown
Mean anomaly
205.0071°
Eccentric anomaly
Unknown
Mean motion
3.44141 °/min
Orbital period
104.61 mins
BSTAR
0.0004275
Loading maneuver chart data...
Loading SW <> Apogee altitude chart data...

THOR ABLESTAR DEB Visibility forecast

Observer location: undefined°, undefined°

Span
Click to sort rows by Start time (UTC) header in descending order
Start Az.
Max El. time (UTC)
Max El. Az.
Max El.
End time (UTC)
End Az.
8 mins2025-07-02 13:59:58.994Z147.758° SSE2025-07-02 14:03:58.994Z108.411° ESE19.429°2025-07-02 14:07:58.994Z65.345° ENE
11 mins2025-07-02 15:45:58.994Z220.343° SW2025-07-02 15:50:58.994Z282.833° WNW42.432°2025-07-02 15:56:58.994Z22.755° NE
5 mins2025-07-02 17:37:58.994Z300.475° NW2025-07-02 17:39:58.994Z320.674° NNW14.205°2025-07-02 17:42:58.994Z350.441° N
7 mins2025-07-02 23:09:58.994Z8.062° NNE2025-07-02 23:12:58.994Z46.333° ENE21.476°2025-07-02 23:16:58.994Z93.174° ESE
9 mins2025-07-03 00:56:58.994Z320.907° NNW2025-07-03 01:00:58.994Z245.647° WSW41.893°2025-07-03 01:05:58.994Z167.361° S
|